OBJECT G

Satellite information

Favourite Embed

Satellite Type and Status

UNKNOWNIN ORBIT

Key statistics

Satellite OBJECT G at a glance.

Uptime

301

Days in orbit

Revolutions

≈ 15.2

Per day

Orbit

SSO

Sun Synchronous Orbit

Inclination

97.4

Latest

Satellite identification and parameters

Extended collection of information and parameters for OBJECT G.

Object identification

Identified? True

Debris? False

Object name: OBJECT G

International designator: 2024-205G

Object number (NORAD): 61900

Object ID (CCSDS): 61900

Country: PEOPLES REPUBLIC OF CHINA (PRC)

Current information (Y/N): Y

RCS size: MEDIUM

Orbital parameters

Period: 95.0 minutes

Inclination: 97.4468 deg

SMA: 6896.734 km

Apoapsis: 535.911 km

Periapsis: 501.286 km

RAAN: 322.9927 deg

Eccentricy: 0.0025103

Argument of periapsis: 298.58 deg

Mean anomaly: 61.2907 deg

Mean motion: 15.1578495 rev/day

Mean motion (dot): 0.00010422 rev/day2

B* drag term: 0.00054482371 1/REarth

Two-line elements (TLE)

Creation date: Sept. 8, 2025, 3:16 a.m.

Reference frame: TEME

Reference center: EARTH

Epoch: Sept. 7, 2025, 10:24 p.m. UTC

TLE line 0: 0 OBJECT G

TLE line 1: 1 61900U 24205G 25250.93387088 .00010422 00000-0 54482-3 0 9994

TLE line 2: 2 61900 97.4468 322.9927 0025103 298.5800 61.2907 15.15784950 45473

Live tracking on map

Real-time ground track for satellite OBJECT G.

In-orbit conjunctions

There are no conjunctions computed for OBJECT G, at the moment. Check back to stay up to date, as we update our databases every day.

Go to all conjunctions

Associated space launch

Launch of 15 satellites on share-ride to SSO: * Shiyan 26 A/B/C * Jilin-1 High Resolution-05B * Jilin-1 Platform-02A-03 * Yunyao-1 31-36 * Xiguang-1-04/05 * Tianyan-24 * Omani IRSS-1/OL-1

OBJECT G was lifted into orbit during the mission ‘Kinetica 1 | 15 satellites’, on board a Kinetica 1 space rocket.

The launch took place on Nov. 11, 2024, 4:03 a.m. from Launch Area 130.

For more information about the launch, click the button.

Launch to space Kinetica 1 | 15 satellites
Kinetica 1 | 15 satellites

Agency: N/A

Status: Launch Successful

Launch date: Nov. 11, 2024, 4:03 a.m. UTC

Rocket: Kinetica 1

Launch pad: Launch Area 130

Location: Jiuquan Satellite Launch Center, People's Republic of China

...

Latest news about this satellite

News about space launch
Chinese commercial Lijian-1 rocket launches 15 satellites

HELSINKI — A Chinese commercial rocket sent 15 satellites into orbit late Sunday, including launch service provider CAS Space’s first international payload. The Lijian-1 (Kinetica-1) solid rocket lifted off at […]

News about space launch
Launch Roundup: SpaceX launches cargo resupply mission to ISS, Roscosmos and Rocket Lab also launch

This week got off to a flying start when new science experiments and cargo were launched to the International Space Station, and Roscosmos launched ionospheric research satellites. Rocket Lab has also launched its Electron rocket on the company’s quickest...


Newsletter sign-up

Weekly statistics, charts and insights to help you stay on top of the space industry.